TimeMST,TemperatureF,Dew PointF,Humidity,Sea Level PressureIn,VisibilityMPH,Wind Direction,Wind SpeedMPH,Gust SpeedMPH,PrecipitationIn,Events,Conditions,WindDirDegrees,DateUTC
12:53 AM,18.0,14.0,84,30.09,10.0,WSW,6.9,-,N/A,,Clear,240,2013-01-25 07:53:00
1:53 AM,18.0,14.0,84,30.08,10.0,WSW,6.9,-,N/A,,Clear,240,2013-01-25 08:53:00
2:53 AM,12.9,10.0,88,30.09,10.0,Calm,Calm,-,N/A,,Clear,0,2013-01-25 09:53:00
3:53 AM,12.0,9.0,88,30.06,10.0,Calm,Calm,-,N/A,,Clear,0,2013-01-25 10:53:00
4:53 AM,12.0,9.0,88,30.06,9.0,East,6.9,-,N/A,,Clear,90,2013-01-25 11:53:00
5:53 AM,12.9,10.0,88,30.05,9.0,ENE,5.8,-,N/A,,Clear,70,2013-01-25 12:53:00
6:53 AM,15.1,10.9,84,30.05,10.0,ENE,4.6,-,N/A,,Clear,60,2013-01-25 13:53:00
7:53 AM,15.1,12.0,88,30.05,9.0,NE,3.5,-,N/A,,Clear,50,2013-01-25 14:53:00
8:53 AM,18.0,14.0,84,30.05,10.0,Calm,Calm,-,N/A,,Clear,0,2013-01-25 15:53:00
9:53 AM,23.0,18.0,81,30.03,10.0,WNW,5.8,-,N/A,,Clear,290,2013-01-25 16:53:00
10:53 AM,36.0,28.0,73,30.03,10.0,WSW,9.2,-,N/A,,Clear,250,2013-01-25 17:53:00
11:53 AM,37.9,28.9,70,30.00,10.0,SW,13.8,-,N/A,,Clear,230,2013-01-25 18:53:00
12:53 PM,39.9,28.9,65,29.97,10.0,SW,15.0,-,N/A,,Clear,230,2013-01-25 19:53:00
1:53 PM,39.0,30.0,70,29.96,10.0,SW,17.3,-,N/A,,Clear,230,2013-01-25 20:53:00
2:53 PM,37.9,30.0,73,29.96,10.0,SW,17.3,-,N/A,,Clear,220,2013-01-25 21:53:00
3:53 PM,37.9,30.0,73,29.96,10.0,WSW,11.5,-,N/A,,Clear,240,2013-01-25 22:53:00
4:53 PM,36.0,30.0,79,29.96,10.0,WSW,9.2,-,N/A,,Clear,240,2013-01-25 23:53:00
5:53 PM,36.0,30.0,79,29.94,10.0,WSW,5.8,-,N/A,,Clear,250,2013-01-26 00:53:00
6:53 PM,37.0,30.0,76,29.93,10.0,SW,12.7,-,N/A,,Clear,230,2013-01-26 01:53:00
7:53 PM,36.0,30.0,79,29.92,10.0,SW,9.2,-,N/A,,Partly Cloudy,220,2013-01-26 02:53:00
8:53 PM,36.0,30.0,79,29.91,10.0,SW,11.5,-,N/A,,Clear,230,2013-01-26 03:53:00
9:53 PM,35.1,30.0,82,29.90,10.0,SW,11.5,-,N/A,,Clear,230,2013-01-26 04:53:00
10:53 PM,36.0,30.0,79,29.88,10.0,WNW,9.2,-,N/A,,Scattered Clouds,290,2013-01-26 05:53:00
11:53 PM,35.1,30.0,82,29.87,10.0,SW,9.2,-,N/A,,Clear,220,2013-01-26 06:53:00